COSMOS 2354

Satellite information

Favourite Embed

Satellite Type and Status

PAYLOADIN ORBIT

Key statistics

Satellite COSMOS 2354 at a glance.

Uptime

9884

Days in orbit

Revolutions

≈ 12.2

Per day

Orbit

LEO

Low Earth Orbit

Inclination

82.6

Latest

Satellite identification and parameters

Extended collection of information and parameters for COSMOS 2354.

Object identification

Identified? True

Debris? False

Object name: COSMOS 2354

International designator: 1998-036C

Object number (NORAD): 25365

Object ID (CCSDS): 25365

Country: COMMONWEALTH OF INDEPENDENT STATES (CIS)

Current information (Y/N): Y

RCS size: MEDIUM

Orbital parameters

Period: 117.949 minutes

Inclination: 82.582 deg

SMA: 7966.901 km

Apoapsis: 1869.166 km

Periapsis: 1308.366 km

RAAN: 191.7698 deg

Eccentricy: 0.0351956

Argument of periapsis: 243.4249 deg

Mean anomaly: 275.7741 deg

Mean motion: 12.20867781 rev/day

Mean motion (dot): 0.00000027 rev/day2

B* drag term: 0.00015213 1/REarth

Two-line elements (TLE)

Creation date: July 6, 2025, 6:05 p.m.

Reference frame: TEME

Reference center: EARTH

Epoch: July 6, 2025, 11:46 a.m. UTC

TLE line 0: 0 COSMOS 2354

TLE line 1: 1 25365U 98036C 25187.49034244 .00000027 00000-0 15213-3 0 9994

TLE line 2: 2 25365 82.5820 191.7698 0351956 243.4249 275.7741 12.20867781205884

Live tracking on map

Real-time ground track for satellite COSMOS 2354.

In-orbit conjunctions

There are no conjunctions computed for COSMOS 2354, at the moment. Check back to stay up to date, as we update our databases every day.

Go to all conjunctions

Associated space launch

Second generation store-dump military communications satellites

COSMOS 2354 was lifted into orbit during the mission ‘Tsiklon-3 | Strela-3 119 to 124’, on board a Tsiklon-3 space rocket.

The launch took place on June 15, 1998, 10:58 p.m. from 32/1.

For more information about the launch, click the button.

Launch to space Tsiklon-3 | Strela-3 119 to 124
Tsiklon-3 | Strela-3 119 to 124

Agency: N/A

Status: Launch Successful

Launch date: June 15, 1998, 10:58 p.m. UTC

Rocket: Tsiklon-3

Launch pad: 32/1

Location: Plesetsk Cosmodrome, Russian Federation

...

Latest news about this satellite

There are no fresh news available about this satellite. Check back as we update our databases every day.


Newsletter sign-up

Weekly statistics, charts and insights to help you stay on top of the space industry.